OH2NJR Weather Reports


time (UTC)temp
C
wind
direction
speed
KPH
gust
KPH
rain 1hr
cm
rain 24hr
cm
rain mn
cm
humidity
%
barometer
mb
20260906051244 10 7 1.6 3.2 0.00 0.13 0.00 83 1004.9
20260906045512 9 319 0.0 3.2 0.00 0.13 0.00 89 1003.9
20260906043628 9 319 3.2 9.7 0.00 0.13 0.00 90 1003.7
20260906041850 9 325 3.2 6.4 0.00 0.13 0.00 89 1003.6
20260906041848 9 325 3.2 6.4 0.00 0.13 0.00 89 1003.6
20260906035903 9 305 3.2 8.0 0.00 0.13 0.00 90 1003.4
20260906033933 9 324 1.6 4.8 0.00 0.13 0.00 90 1003.2
20260906032248 9 318 3.2 6.4 0.00 0.13 0.00 90 1003.2
20260906032243 9 318 3.2 6.4 0.00 0.13 0.00 90 1003.2
20260906030543 9 297 4.8 12.9 0.00 0.13 0.00 91 1003.0
20260906024838 9 339 3.2 6.4 0.00 0.13 0.00 90 1002.8
20260906022910 4 327 1.6 4.8 0.00 0.13 0.00 90 1002.7
20260906022908 9 327 1.6 4.8 0.00 0.13 0.00 90 1002.7
20260906020913 9 318 1.6 6.4 0.00 0.13 0.00 90 1002.4
20260906015213 10 318 1.6 6.4 0.00 0.13 0.00 90 1002.3
20260906013325 10 0 1.6 6.4 0.00 0.13 0.00 90 1002.3
20260906011518 9 288 3.2 9.7 0.00 0.13 0.00 91 1002.1
20260906005844 10 323 1.6 6.4 0.00 0.13 0.00 90 1001.4
20260906005838 10 323 1.6 6.4 0.00 0.13 0.00 90 1001.4
20260906004033 10 324 1.6 3.2 0.00 0.13 0.00 90 1001.3
20260906002142 10 343 1.6 4.8 0.00 0.13 0.00 89 1001.1
20260906000503 10 354 3.2 4.8 0.00 0.13 0.00 90 1001.0
20260905234908 10 308 1.6 9.7 0.00 0.13 0.00 89 1000.9
20260905234903 10 308 1.6 9.7 0.00 0.13 0.00 89 1000.9
20260905233153 10 305 3.2 8.0 0.00 0.13 0.00 89 1000.8
20260905231343 10 331 1.6 4.8 0.00 0.13 0.00 88 1000.7
20260905225553 11 314 1.6 9.7 0.00 0.13 0.00 88 1000.6
20260905223733 11 304 1.6 4.8 0.00 0.13 0.00 88 1000.5
20260905222103 11 303 1.6 4.8 0.00 0.13 0.00 89 1000.3
20260905220223 11 55 1.6 4.8 0.00 0.13 0.00 89 1000.3
20260905214243 11 2 1.6 3.2 0.00 0.13 0.00 88 1000.2
20260905212432 11 341 0.0 4.8 0.00 0.13 0.00 88 1000.1
20260905212429 11 341 0.0 4.8 0.00 0.00 0.00 88 1000.1
20260905210515 12 353 3.2 8.0 0.00 0.13 0.00 86 1000.0
20260905204807 13 334 3.2 6.4 0.00 0.13 0.13 79 999.2
20260905204803 13 334 3.2 6.4 0.00 0.13 0.13 79 999.2
20260905202838 13 294 3.2 8.0 0.00 0.13 0.13 76 999.1
20260905201143 14 305 4.8 9.7 0.00 0.13 0.13 74 999.0
20260905195323 14 287 3.2 6.4 0.00 0.13 0.13 73 998.8
20260905193543 15 313 3.2 4.8 0.00 0.13 0.13 71 998.8
20260905191951 15 344 3.2 4.8 0.00 0.13 0.13 70 998.8
20260905191948 15 344 3.2 4.8 0.00 0.13 0.13 70 998.8
20260905190228 15 331 3.2 4.8 0.00 0.13 0.13 69 998.7
20260905184543 15 310 1.6 3.2 0.00 0.13 0.13 69 998.6
20260905182603 15 316 1.6 4.8 0.00 0.13 0.13 69 998.6
20260905180646 15 297 3.2 6.4 0.00 0.13 0.13 70 998.5
20260905180643 15 297 3.2 6.4 0.00 0.13 0.13 70 998.5
20260905175033 15 296 1.6 4.8 0.00 0.13 0.13 69 998.4
20260905173338 15 292 3.2 6.4 0.00 0.13 0.13 67 998.3
20260905171711 15 308 1.6 4.8 0.00 0.13 0.00 67 998.2
20260905171708 15 308 1.6 4.8 0.00 0.13 0.13 67 998.2
20260905165723 16 4 0.0 1.6 0.00 0.13 0.13 64 997.3
20260905164028 15 36 0.0 0.0 0.00 0.13 0.13 69 997.3
20260905162413 15 28 0.0 1.6 0.00 0.13 0.13 69 997.2
20260905160603 16 8 0.0 1.6 0.00 0.13 0.13 67 997.2
20260905154858 16 305 0.0 1.6 0.00 0.13 0.13 67 997.0
20260905154853 16 305 0.0 1.6 0.00 0.13 0.13 67 997.0
20260905153143 16 358 0.0 1.6 0.00 0.13 0.13 66 996.9
20260905151403 16 310 3.2 8.0 0.00 0.13 0.13 65 996.9
20260905145503 16 64 1.6 3.2 0.00 0.13 0.00 69 996.7
20260905145458 16 64 1.6 3.2 0.00 0.13 0.13 69 996.7
20260905143541 16 194 6.4 11.3 0.03 0.13 0.13 70 996.6
20260905143538 16 194 6.4 11.3 0.03 0.13 0.13 70 996.6
20260905141833 15 187 3.2 4.8 0.03 0.13 0.13 70 996.5
20260905140058 15 191 3.2 6.4 0.05 0.13 0.13 75 996.4
20260905134428 16 199 4.8 6.4 0.10 0.13 0.10 69 996.5
20260905132703 17 114 1.6 3.2 0.08 0.18 0.08 64 996.5
20260905130818 16 252 0.0 3.2 0.08 0.18 0.08 62 996.5
20260905124923 15 188 3.2 6.4 0.03 0.13 0.03 74 996.2
20260905123323 16 107 1.6 1.6 0.00 0.08 0.00 68 996.0
20260905121500 18 316 1.6 3.2 0.00 0.08 0.00 58 995.8
20260905115838 17 191 1.6 6.4 0.00 0.00 0.00 65 995.7
20260905115833 17 191 1.6 6.4 0.00 0.08 0.00 65 995.7
20260905114013 16 191 4.8 8.0 0.00 0.08 0.00 68 995.6
20260905112223 16 182 4.8 9.7 0.00 0.08 0.00 68 995.5
20260905110558 16 187 3.2 8.0 0.00 0.08 0.00 68 995.4
20260905104753 17 192 4.8 8.0 0.00 0.08 0.00 65 995.3
20260905102838 18 317 1.6 6.4 0.00 0.08 0.00 56 995.2
20260905100843 17 336 0.0 3.2 0.00 0.08 0.00 59 995.2
20260905094858 17 322 1.6 4.8 0.00 0.08 0.00 58 995.1
20260905092933 17 301 1.6 1.6 0.00 0.08 0.00 59 995.0
20260905091313 17 333 1.6 3.2 0.00 0.08 0.00 63 994.9
20260905085644 -17 145 0.0 9.7 0.00 0.08 0.00 71 994.6
20260905085638 16 145 0.0 3.2 0.00 0.08 0.00 71 994.6
20260905083913 15 219 1.6 3.2 0.00 0.08 0.00 75 994.7
20260905082003 13 304 1.6 3.2 0.00 0.08 0.00 80 994.6
20260905080243 13 122 0.0 1.6 0.00 0.08 0.00 85 994.5
20260905074253 12 220 0.0 1.6 0.00 0.08 0.00 87 994.4
20260905072411 12 62 0.0 1.6 0.00 0.08 0.00 90 994.3
20260905070723 12 299 0.0 1.6 0.00 0.08 0.00 91 994.2
20260905064953 11 343 0.0 1.6 0.00 0.08 0.00 93 994.2
20260905063156 11 31 0.0 4.8 0.00 0.08 0.00 94 994.1
20260905061433 10 69 0.0 3.2 0.00 0.08 0.00 96 994.2
20260905055438 10 27 0.0 1.6 0.00 0.08 0.00 97 994.1
20260905053631 10 36 1.6 4.8 0.00 0.00 0.00 99 994.2
20260905053623 10 36 1.6 4.8 0.00 0.08 0.00 99 994.2